THOR ABLESTAR DEB, 172

Orbit data source: Space-Track

THOR ABLESTAR DEB, 172 is space debris in LEO originally from a launch on Thu, 29 Jun 1961 UTC launched from the Air Force Eastern Test Range (AFETR). Debris objects in space refer to the collection of defunct objects orbiting the Earth. Examples of debris include non-operational satellites, rocket bodies, and fragments generated from explosions, collisions, or faulty payload assembly.

Loading next visibility...
Identifier
172, 1961-015AY
Orbit
LEO
Country
Flag of USUS
Related business
Manufacturer
Unknown
Mission
Spacecraft
Bus & Motor
Unknown
Mass
Unknown
Launch date (UTC)
1961-06-29 (64 years ago)
Launch vehicle
Unknown
Launch site
Air Force Eastern Test Range (AFETR)
Object type
Payload
Rocket body
Debris
Shape & HBR
Unknown shape, 0.2 m
Radar Cross Section
Small (<0.1 m²)

Expand to show TLE details & history
Last TLE update: 12 hours ago

TLE from 12 hours ago
0 THOR ABLESTAR DEB
1   172U 61015AY  25289.09896806  .00000703  00000-0  98514-3 0  9995
2   172  67.0702   6.9498 0138957 238.9605 119.7755 13.59063395171947
Epoch: 2025-10-16T02:22Z
TLE epoch observation values (Epoch: 2025-10-16T02:22:30.840Z)
Latitude
-0.00006°
Longitude
-53.54228°
Altitude
1,093.419 km
Speed
7.28 km/s
True Right ascension
00h 27m 47s
True Declination
0° 00' 00"
Sunlit
Object was in full shadow at epoch
Visualization orbit readout
Latitude
Unknown
Longitude
Unknown
Altitude
Unknown
Speed
Unknown
Apparent Right ascension
Unknown
Apparent Declination
Unknown
Sunlit
N/A
Visualization observer readout
Local Sidereal Time
08:57:47
Azimuth
Unknown
Elevation
Unknown
Doppler factor
Unknown
Orbital elements
Apogee altitude
1,140.531 km
Perigee altitude
934.44 km
Semi-major axis
7,415.622 km
Eccentricity
0.0139
Inclination
67.0702°
RAAN
6.9498°
Arg. of periapsis
238.9605°
True anomaly
121.14565°
Mean anomaly
119.7755°
Eccentric anomaly
120.46177°
Mean motion
3.39877 °/min
Orbital period
105.92 mins
BSTAR
0.00098514

Documentation

Showing up to 5 results
|